Total_Precipitation_Accumulation
1.51 1.95 2.56 3.12 3.70 4.54 5.03 5.06 4.67 3.78 3.18 2.68 2.42 2.19 1.94 1.74 1.50 1.24 1.05 0.93 0.88 0.79 0.81 0.78 0.79 0.81 0.79 0.81 0.95 1.07 1.10 0.94 1.11 1.25 1.09 0.89 0.74 0.71 0.70 0.64 0.64 0.65 0.70
1.34 1.95 2.70 3.39 3.84 4.19 4.40 4.29 3.76 2.95 2.41 2.09 1.99 1.82 1.64 1.33 1.17 0.99 0.91 0.81 0.75 0.69 0.66 0.69 0.65 0.61 0.67 0.68 0.72 0.84 0.86 0.77 0.88 1.01 1.02 0.84 0.74 0.62 0.42 0.46 0.47 0.49 0.62
1.54 2.28 3.05 3.61 3.70 3.57 3.23 2.86 2.57 2.15 1.97 1.89 1.71 1.53 1.45 1.19 0.98 0.76 0.67 0.62 0.55 0.50 0.48 0.45 0.45 0.48 0.50 0.55 0.60 0.68 0.73 0.70 0.65 0.73 0.86 0.75 0.65 0.56 0.46 0.39 0.41 0.49 0.56
1.65 2.35 2.88 2.97 2.94 2.68 2.27 2.04 1.94 1.80 1.68 1.60 1.49 1.23 1.03 0.93 0.79 0.68 0.60 0.54 0.45 0.42 0.39 0.35 0.34 0.34 0.35 0.45 0.43 0.51 0.63 0.67 0.57 0.55 0.60 0.60 0.60 0.58 0.55 0.47 0.39 0.45 0.48
1.22 1.44 1.61 1.64 1.68 1.59 1.65 1.70 1.74 1.74 1.64 1.55 1.43 1.26 1.01 0.92 0.86 0.81 0.73 0.65 0.55 0.45 0.40 0.38 0.35 0.34 0.31 0.34 0.35 0.46 0.55 0.62 0.56 0.51 0.54 0.63 0.64 0.55 0.55 0.53 0.50 0.52 0.41
0.70 0.76 0.77 0.83 1.01 1.02 1.12 1.24 1.29 1.42 1.48 1.42 1.24 1.13 1.01 0.95 0.91 0.80 0.66 0.57 0.51 0.47 0.42 0.42 0.43 0.39 0.36 0.36 0.36 0.39 0.42 0.55 0.63 0.60 0.57 0.61 0.64 0.53 0.50 0.44 0.43 0.49 0.43
0.51 0.61 0.65 0.71 0.85 0.78 0.81 0.92 0.97 0.99 1.06 1.05 0.98 0.95 0.95 0.92 0.84 0.71 0.60 0.51 0.41 0.39 0.39 0.38 0.41 0.42 0.42 0.41 0.41 0.42 0.40 0.47 0.56 0.56 0.57 0.56 0.55 0.58 0.58 0.55 0.48 0.50 0.53
0.37 0.42 0.45 0.52 0.60 0.54 0.57 0.69 0.77 0.76 0.76 0.78 0.79 0.76 0.81 0.73 0.68 0.70 0.60 0.52 0.43 0.39 0.37 0.36 0.35 0.38 0.41 0.44 0.49 0.45 0.45 0.47 0.48 0.45 0.58 0.61 0.54 0.64 0.68 0.72 0.77 0.69 0.70
0.24 0.26 0.27 0.31 0.39 0.42 0.46 0.54 0.64 0.66 0.62 0.66 0.68 0.63 0.69 0.70 0.68 0.66 0.58 0.52 0.54 0.45 0.42 0.38 0.40 0.43 0.44 0.47 0.50 0.48 0.47 0.49 0.47 0.49 0.58 0.64 0.69 0.73 0.68 0.78 0.87 0.91 0.86
0.17 0.16 0.17 0.19 0.24 0.33 0.44 0.52 0.56 0.60 0.58 0.59 0.58 0.51 0.58 0.67 0.73 0.68 0.59 0.57 0.59 0.52 0.51 0.48 0.46 0.48 0.49 0.49 0.52 0.50 0.54 0.57 0.59 0.63 0.68 0.68 0.72 0.81 0.73 0.78 0.85 0.88 0.95
0.17 0.14 0.11 0.12 0.16 0.24 0.35 0.42 0.51 0.58 0.58 0.58 0.63 0.66 0.64 0.60 0.68 0.70 0.69 0.70 0.71 0.61 0.59 0.59 0.59 0.58 0.58 0.60 0.64 0.63 0.65 0.71 0.80 0.83 0.85 0.87 0.89 0.92 0.89 0.94 0.93 0.88 0.96
0.13 0.10 0.10 0.12 0.16 0.20 0.27 0.34 0.40 0.50 0.53 0.55 0.62 0.68 0.73 0.65 0.67 0.71 0.73 0.74 0.79 0.81 0.76 0.72 0.69 0.62 0.61 0.68 0.71 0.74 0.71 0.73 0.79 0.97 1.18 1.18 1.17 1.10 1.00 1.07 1.03 0.98 1.12
0.16 0.13 0.17 0.19 0.20 0.24 0.27 0.36 0.43 0.51 0.59 0.59 0.63 0.70 0.73 0.70 0.71 0.82 0.85 0.82 0.87 0.92 0.93 0.89 0.80 0.69 0.63 0.61 0.65 0.74 0.76 0.79 0.90 1.05 1.18 1.27 1.38 1.27 1.17 1.13 1.11 1.13 1.20
0.16 0.12 0.14 0.18 0.21 0.28 0.33 0.43 0.60 0.57 0.54 0.60 0.65 0.70 0.74 0.78 0.82 0.87 0.92 0.91 0.94 0.97 1.02 1.01 0.96 0.88 0.75 0.66 0.65 0.69 0.76 0.91 1.08 1.12 1.04 1.11 1.35 1.44 1.37 1.24 1.17 1.19 1.25
0.17 0.16 0.16 0.18 0.26 0.33 0.36 0.43 0.51 0.63 0.67 0.76 0.82 0.86 0.96 1.05 1.10 1.13 1.12 1.07 1.07 1.06 1.12 1.16 1.14 1.05 0.91 0.75 0.77 0.83 0.78 0.88 0.95 0.96 0.88 0.85 0.99 1.22 1.37 1.28 1.23 1.24 1.24
0.21 0.22 0.25 0.25 0.26 0.30 0.36 0.45 0.47 0.58 0.73 0.90 1.01 1.08 1.22 1.33 1.42 1.52 1.59 1.51 1.43 1.46 1.52 1.47 1.38 1.26 0.96 0.89 0.84 0.82 0.85 0.88 0.89 0.87 0.84 0.74 0.65 0.72 0.92 1.11 1.24 1.32 1.26
0.34 0.34 0.36 0.36 0.34 0.34 0.39 0.45 0.50 0.63 0.81 1.02 1.20 1.32 1.45 1.61 1.74 1.81 1.84 1.80 1.82 1.86 1.87 1.78 1.60 1.45 1.31 1.11 0.92 0.84 0.82 0.82 0.82 0.85 0.83 0.66 0.56 0.63 0.66 0.80 0.92 1.04 1.09
0.36 0.36 0.43 0.46 0.43 0.46 0.54 0.62 0.73 0.88 1.06 1.23 1.40 1.57 1.60 1.64 1.73 1.77 1.72 1.74 1.85 1.90 1.86 1.77 1.64 1.56 1.46 1.26 1.01 0.90 0.77 0.81 0.83 0.84 0.84 0.79 0.73 0.69 0.73 0.76 0.76 0.78 0.84
0.37 0.38 0.44 0.52 0.58 0.59 0.65 0.74 0.79 0.90 1.08 1.24 1.33 1.41 1.52 1.63 1.67 1.66 1.70 1.75 1.78 1.69 1.58 1.52 1.51 1.48 1.49 1.33 1.09 0.99 0.91 0.97 0.97 0.94 0.93 0.91 0.85 0.84 0.71 0.70 0.73 0.73 0.77
0.39 0.41 0.43 0.47 0.56 0.65 0.67 0.70 0.79 0.92 1.10 1.24 1.27 1.30 1.42 1.53 1.61 1.64 1.67 1.65 1.60 1.55 1.50 1.44 1.45 1.45 1.45 1.36 1.06 0.98 0.95 1.04 1.06 1.08 1.06 0.97 0.86 0.81 0.68 0.66 0.73 0.73 0.73
0.39 0.42 0.47 0.48 0.52 0.61 0.66 0.74 0.85 0.94 1.00 1.09 1.17 1.25 1.39 1.49 1.51 1.59 1.60 1.59 1.57 1.58 1.57 1.50 1.42 1.40 1.39 1.35 1.06 0.93 0.89 1.01 1.14 1.13 1.09 1.04 0.91 0.71 0.63 0.62 0.68 0.68 0.72
0.42 0.43 0.50 0.61 0.65 0.66 0.66 0.72 0.75 0.76 0.83 0.89 0.95 0.98 1.07 1.19 1.26 1.38 1.40 1.43 1.41 1.37 1.35 1.33 1.27 1.23 1.25 1.18 1.05 0.85 0.76 0.84 1.00 1.09 1.10 1.11 0.94 0.69 0.58 0.48 0.45 0.43 0.42
0.47 0.48 0.52 0.57 0.60 0.65 0.71 0.78 0.78 0.75 0.74 0.74 0.74 0.76 0.81 0.96 1.12 1.19 1.18 1.21 1.22 1.20 1.17 1.16 1.14 1.12 1.09 1.02 0.81 0.66 0.55 0.59 0.74 0.90 1.00 0.93 0.78 0.64 0.51 0.43 0.38 0.36 0.35
0.34 0.40 0.45 0.51 0.58 0.58 0.61 0.67 0.71 0.71 0.75 0.76 0.77 0.78 0.81 0.90 1.14 1.28 1.21 1.16 1.15 1.12 1.11 1.07 1.08 1.11 1.13 1.08 0.87 0.66 0.52 0.54 0.66 0.75 0.78 0.78 0.77 0.74 0.69 0.58 0.48 0.40 0.41
0.29 0.33 0.37 0.39 0.39 0.41 0.44 0.49 0.54 0.62 0.66 0.64 0.62 0.63 0.70 0.82 1.01 1.16 1.17 1.05 1.02 1.01 1.03 1.00 0.98 0.94 0.92 0.88 0.76 0.63 0.61 0.68 0.76 0.77 0.84 0.86 0.92 0.95 0.94 0.88 0.78 0.71 0.68
0.29 0.33 0.37 0.39 0.40 0.41 0.47 0.53 0.60 0.67 0.70 0.67 0.62 0.62 0.64 0.74 0.92 1.12 1.18 0.99 0.82 0.80 0.79 0.74 0.71 0.66 0.59 0.55 0.55 0.52 0.51 0.57 0.62 0.63 0.79 0.91 1.00 1.08 1.10 1.10 1.02 0.93 0.85